Location: Amerbacherkreut
(48.8974°N, 10.6875°E)
Time: 15:39:48
(UTC+00:00)

Daily predictions for brighter satellites

Satellite Brightness Start Highest point End
(mag) Time Altitude Azimuth Time Altitude Azimuth Time Altitude Azimuth
Cosmos 1867 4.3 18:31:10 10° SW 18:36:33 60° NW 18:42:00 10° NE
USA 186 1.9 18:34:11 10° SSE 18:37:11 49° ENE 18:40:08 10° N
Cosmos 1455 2.6 18:37:40 10° SSE 18:40:56 35° E 18:44:14 10° NNE
CZ-4B R/B 3.8 18:39:10 10° S 18:42:47 46° W 18:46:17 10° NNW
Cosmos 1953 2.2 18:40:44 10° S 18:44:28 57° E 18:48:14 10° NNE
SPOT 1/Viking Rocket 3.6 18:39:34 10° SSE 18:44:47 87° ENE 18:50:03 10° NNW
SJ 16-02 1.5 18:40:34 10° NNW 18:44:50 54° ENE 18:49:04 10° SE
CZ-4B R/B 3.3 18:39:28 10° SSE 18:45:07 80° ENE 18:50:45 10° NNW
DELTA 2 DEB (DPAF) 4.3 18:41:09 10° NNE 18:45:13 44° E 18:49:15 10° S
NOSS 2-3 (C) 3.2 18:42:21 10° SSW 18:45:59 67° SE 18:50:05 10° NE
Cosmos 2366 rocket 4.1 18:41:19 10° N 18:47:39 64° ENE 18:53:56 10° SSE
NOSS 2-3 (D) 3.1 18:47:30 10° SSW 18:51:08 69° SE 18:55:15 10° NE
ATLAS 3B R/B 3.9 18:47:14 10° SSE 18:52:07 20° ESE 18:57:12 10° ENE
Cosmos 2098 Rocket 4.1 18:48:12 10° SSE 18:52:43 30° E 18:56:33 10° NNE
Cosmos 2218 Rocket 4.1 18:48:09 10° N 18:54:34 69° ENE 19:00:54 10° SSE
CZ-4C R/B 4.3 18:55:41 10° NE 18:58:25 21° E 19:01:06 10° SSE
Terra 3.6 18:56:10 10° E 18:58:58 16° ENE 19:01:48 10° NNE
USA 281 3.3 18:53:15 10° SE 18:59:46 69° ENE 19:06:19 10° NNW
USA 129 2.6 18:57:49 10° NNE 19:00:25 36° E 19:02:36 10° SSE
NOSS 2-2 (E) 3.0 18:58:04 10° SW 19:01:15 70° NW 19:04:27 10° NE
Okean-O 3.2 18:58:52 10° SE 19:02:59 41° ENE 19:07:08 10° N
Cosmos 1821 Rocket 4.3 18:57:19 10° N 19:03:21 49° ENE 19:09:14 10° SSE
Cosmos 1959 Rocket 4.4 18:59:25 10° N 19:05:34 78° E 19:11:44 10° SSE
Cosmos 1825 3.0 19:10:06 10° NNW 19:13:26 46° W 19:16:45 10° S
Cosmos 2344 3.9 19:06:44 10° SW 19:14:09 67° NW 19:21:42 10° NE
PSLV R/B 3.8 19:11:02 10° S 19:14:42 76° WSW 19:18:27 10° NNW
NOSS 2-2 (D) 2.9 19:12:13 10° SW 19:15:26 75° NW 19:18:37 10° NE
NOSS 2-3 (E) 3.8 19:14:06 10° SW 19:17:46 63° NW 19:21:59 10° NE
Cosmos 1025 Rocket 3.6 19:16:56 10° NNW 19:21:14 59° W 19:25:30 10° S
Cosmos 1656 Rocket 4.2 19:19:00 10° SW 19:24:29 63° WNW 19:29:57 10° NNE
Okean O Rocket 2.0 19:21:33 10° S 19:25:51 65° WSW 19:30:12 10° NNW
Cosmos 1302 Rocket 4.1 19:23:55 10° SSW 19:29:11 84° WNW 19:34:29 10° NNE
Resurs 01 Rocket 2.2 19:26:42 10° S 19:31:03 58° W 19:35:25 10° NNW
Cosmos 1975 Rocket 3.1 19:27:55 10° NNW 19:32:18 82° W 19:36:36 10° S
USA 267 3.9 19:27:25 10° ENE 19:33:48 57° NNW 19:40:10 10° W
CARTOSAT-1 4.1 19:31:43 10° S 19:35:54 57° W 19:40:08 10° NNW
Landsat 4 4.1 19:37:44 28° ESE 19:39:03 40° ENE 19:42:22 10° N
Cosmos 2227 Rocket 4.1 19:36:30 10° N 19:40:15 18° NE 19:43:56 10° ENE
Meteor 1-11 4.2 19:36:25 10° NNW 19:42:06 90° ENE 19:47:19 13° S
ATLAS 5 CENTAUR R/B 1.5 19:40:14 10° S 19:43:19 33° ESE 19:46:42 10° NE
CZ-4C R/B 4.1 19:38:33 10° NW 19:44:09 30° NNE 19:50:50 10° E
Cosmos 1346 Rocket 4.1 19:41:06 10° SW 19:44:44 40° WNW 19:48:22 10° N
SL-24 R/B 4.5 19:41:08 18° SSE 19:44:51 77° ENE 19:50:28 10° N
Cosmos 1934 Rocket 4.3 19:44:01 10° N 19:49:56 48° ENE 19:53:19 25° SE
BREEZE-M R/B 1.7 19:48:55 10° W 19:51:26 73° N 19:51:51 54° ENE
SPOT 5 3.1 19:48:09 21° SSE 19:51:48 74° ENE 19:57:06 10° N
NOSS 3-1 (A) 3.5 19:51:45 10° S 19:56:13 36° ESE 20:01:25 10° NE
Cosmos 1536 Rocket 3.8 19:53:46 10° N 19:58:05 53° ENE 19:59:38 35° SE
ERS-1 Rocket 3.1 19:56:33 29° SE 19:58:56 57° ENE 20:03:51 10° N
MOS 1 4.4 19:54:38 15° S 19:59:22 77° WSW 20:05:08 10° NNW
Cosmos 2151 Rocket 3.7 19:59:50 33° SSE 20:01:26 50° E 20:05:43 10° NNE
SL-27 R/B 2.1 19:59:29 10° NNW 20:02:24 66° WSW 20:02:50 54° SSW
CZ-4 R/B 4.4 20:02:37 10° WSW 20:03:53 11° W 20:05:10 10° WNW
COSMOS 2455 4.0 19:59:46 10° NNW 20:05:11 32° NE 20:08:24 20° E
Cosmos 1777 Rocket 4.3 20:03:00 10° NNW 20:08:10 52° ENE 20:10:07 34° ESE
SL-4 R/B 2.2 20:04:46 10° W 20:08:19 55° N 20:09:47 30° ENE
Cosmos 2297 Rocket 3.0 20:04:55 10° NNW 20:10:09 37° NE 20:12:24 27° E
CENTAUR R/B 4.3 20:05:10 10° NW 20:11:52 33° NNE 20:19:34 10° E
Cosmos 2369 Rocket 3.8 20:10:07 10° WSW 20:15:22 37° NW 20:20:37 10° NNE
IRS-1C Rocket 4.3 20:12:54 23° S 20:16:14 70° WSW 20:21:32 10° NNW
Cosmos 1354 Rocket 4.2 20:12:52 10° NNW 20:18:09 59° ENE 20:19:53 39° ESE
NOSS 3-1 (C) 3.1 20:13:24 10° SW 20:18:24 84° NW 20:24:29 10° NE
Cosmos 1503 Rocket 4.0 20:13:10 10° NNW 20:18:35 75° ENE 20:20:33 40° SE
Cosmos 546 4.4 20:15:14 10° WSW 20:19:00 86° SSE 20:19:44 56° ENE
SJ 16-02 3.8 20:19:53 10° NW 20:22:47 18° W 20:25:40 10° SW
Cosmos 371 Rocket 3.2 20:18:03 10° NNW 20:22:51 74° ENE 20:24:08 48° SE
Okean 2 Rocket 3.0 20:23:04 38° S 20:24:46 81° E 20:29:18 10° NNE
Spot 2 Rocket 3.4 20:26:59 43° SSE 20:28:39 80° ENE 20:33:44 10° NNW
Cosmos 1892 Rocket 4.4 20:27:47 10° N 20:31:41 35° ENE 20:31:41 35° ENE
Cosmos 1241 Rocket 4.5 20:27:09 10° NW 20:33:25 75° WSW 20:35:55 39° SSE
Terra 1.8 20:34:37 47° S 20:35:58 82° WSW 20:40:43 10° NNW
Iridium 2 4.1 20:34:49 10° NNW 20:37:09 46° NW 20:37:09 46° NW
Genesis I 3.6 20:34:15 10° NNW 20:37:37 48° NE 20:37:37 48° NE
Sich 1 Rocket 3.7 20:38:15 37° SSW 20:39:55 71° W 20:44:23 10° N
Cosmos 304 Rocket 3.6 20:35:16 10° NNW 20:40:05 84° ENE 20:40:52 62° SE
ATLAS 3B R/B 2.7 20:34:38 10° SSW 20:41:44 81° SE 20:49:22 10° NE
Cosmos 1656 3.8 20:44:12 48° ESE 20:44:12 48° ESE 20:49:24 10° NE
Cosmos 2263 Rocket 4.0 20:40:55 10° N 20:44:58 20° NE 20:47:19 15° ENE
MOS 1 Rocket 3.1 20:45:24 62° ENE 20:45:26 62° ENE 20:49:42 10° N
Ariane Rocket 3.1 20:46:40 46° S 20:48:07 70° WSW 20:53:10 10° NNW
Cosmos 1437 Rocket 3.8 20:46:35 10° N 20:49:28 35° NE 20:49:28 35° NE
SPOT 3 Rocket 3.6 20:52:04 48° S 20:53:27 72° WSW 20:58:40 10° NNW
Cosmos 332 Rocket 4.0 20:48:44 10° NNW 20:53:32 56° ENE 20:53:48 55° ENE
Cosmos 1605 Rocket 3.9 20:48:26 10° N 20:54:53 85° E 20:56:50 48° SSE
Cosmos 405 Rocket 4.5 21:03:02 24° NE 21:03:02 24° NE 21:04:43 10° NNE
Okean 1 Rocket 3.2 21:01:22 61° WSW 21:01:54 69° WNW 21:06:23 10° N
Cosmos 1763 Rocket 4.5 21:05:17 32° ENE 21:05:17 32° ENE 21:08:30 10° NE
Cosmos 1455 Rocket 3.7 21:07:54 45° NE 21:07:54 45° NE 21:11:10 10° NNE
Cosmos 990 Rocket 3.9 21:05:43 10° NNW 21:10:55 66° ENE 21:11:05 66° ENE
Iridium 4 Rocket 4.3 21:10:59 31° SW 21:13:17 51° W 21:18:52 10° N
USA 267 4.2 21:10:04 10° ENE 21:16:12 44° N 21:22:19 10° WNW
MetOp-A 4.0 21:17:03 50° NW 21:17:03 50° NW 21:20:07 10° NNW
ATLAS CENTAUR R/B 3.0 21:14:16 10° NNW 21:16:59 24° NNE 21:16:59 24° NNE
Landsat 5 4.0 21:20:33 10° N 21:24:39 57° WNW 21:24:39 57° WNW
Cosmos 2227 Rocket 2.2 21:19:43 10° NNW 21:25:25 67° ENE 21:25:45 66° E
Cosmos 1727 Rocket 3.9 21:25:28 66° SE 21:25:58 69° E 21:32:12 10° NNE
ATLAS 5 CENTAUR R/B 3.0 21:24:07 10° W 21:27:15 29° NW 21:30:47 10° NNE
Cosmos 2100 Rocket 4.1 21:21:28 10° N 21:27:48 61° ENE 21:28:21 58° E
Cosmos 1980 Rocket 4.0 21:34:09 17° ENE 21:34:09 17° ENE 21:35:59 10° NE
CZ-4C R/B 3.0 21:26:48 10° NW 21:33:43 71° NE 21:36:02 49° ESE
USA 81 4.0 21:35:33 79° NNE 21:35:33 79° NNE 21:40:32 10° N
Cosmos 2058 4.0 21:31:54 10° N 21:34:36 41° N 21:34:36 41° N
Cosmos 540 Rocket 4.3 21:40:01 39° NE 21:40:01 39° NE 21:43:25 10° NNE
Cosmos 1697 Rocket 3.3 21:43:51 44° ENE 21:43:51 44° ENE 21:47:57 10° NE
Cosmos 2123 Rocket 4.5 21:44:44 45° E 21:44:44 45° E 21:50:20 10° NNE
Cosmos 1000 Rocket 4.4 21:46:26 68° E 21:46:26 68° E 21:52:24 10° NNE
NOSS 3-1 (A) 4.0 21:41:47 10° WSW 21:46:47 49° NW 21:52:53 10° NE
SL-4 R/B 4.4 21:43:54 10° WNW 21:44:39 15° WNW 21:44:39 15° WNW
H-2A R/B 4.1 21:51:13 29° N 21:51:13 29° N 21:53:10 10° N
Meteor 2-15 4.4 21:45:23 10° N 21:51:31 67° ENE 21:51:32 67° ENE
COSMOS 2455 2.9 21:45:35 10° NW 21:51:32 67° WSW 21:51:32 67° WSW
Cosmos 2297 Rocket 2.8 21:48:57 10° NW 21:54:11 44° WSW 21:54:11 44° WSW
USA 229 DEB 3.4 21:54:04 80° SSW 21:54:26 86° SE 22:01:18 10° NE
USA 229 3.4 21:54:12 81° S 21:54:31 85° SE 22:01:23 10° NE
Cosmos 1937 Rocket 3.9 21:50:17 10° NNW 21:55:02 56° NE 21:55:02 56° NE
Cosmos 2061 Rocket 4.4 21:53:56 10° N 22:00:11 49° ENE 22:00:19 49° ENE
Cosmos 1898 Rocket 3.7 21:54:55 10° NNW 21:59:29 66° N 21:59:29 66° N
Meteor 2-3 Rocket 3.8 21:54:41 10° N 21:59:55 68° NE 21:59:55 68° NE
Cosmos 2219 3.3 21:55:56 10° NNW 22:01:16 70° NNE 22:01:16 70° NNE
ARIANE 5 R/B 3.6 22:04:41 46° NW 22:04:41 46° NW 22:07:57 10° NNW
CENTAUR R/B 3.4 21:56:00 10° NW 22:04:01 68° NE 22:06:56 46° ESE
Cosmos 1725 Rocket 3.9 22:06:27 10° N 22:12:27 75° ENE 22:12:27 75° ENE
Terra 4.4 22:13:19 10° W 22:14:19 11° W 22:15:33 10° WNW
Cosmos 2233 Rocket 4.2 22:13:18 10° N 22:19:06 58° ENE 22:19:06 58° ENE
Cosmos 2082 3.9 22:18:00 10° NNW 22:23:03 65° NNE 22:23:03 65° NNE
Cosmos 1459 Rocket 4.2 22:19:46 10° NNW 22:25:35 60° W 22:25:35 60° W
ALOS 2 4.0 22:29:29 36° N 22:29:29 36° N 22:32:11 10° N
Cosmos 2263 Rocket 2.4 22:24:09 10° NNW 22:28:59 65° N 22:28:59 65° N
ATLAS 3B R/B 4.1 22:26:30 10° W 22:33:16 39° NNW 22:40:24 10° NE
Cosmos 1802 Rocket 4.5 22:45:20 10° NNW 22:51:08 50° W 22:51:08 50° W
SL-16 R/B 4.0 22:53:27 20° ENE 22:53:27 20° ENE 22:55:58 10° NE
ATLAS CENTAUR R/B 4.1 22:51:44 10° NW 22:52:06 12° NW 22:52:06 12° NW
USA 267 3.7 22:55:32 32° E 22:58:38 60° NNE 23:05:03 10° NW
H-2A R/B 4.0 23:02:56 10° NNE 23:04:46 26° NNE 23:04:46 26° NNE
Cosmos 2227 Rocket 4.0 23:04:38 10° NW 23:07:33 21° W 23:07:33 21° W
NOSS 3-2 (A) 3.9 23:06:50 10° NW 23:14:13 81° SW 23:14:40 78° S
Cosmos 1980 Rocket 2.7 23:15:52 57° NNW 23:15:52 57° NNW 23:20:45 10° NNE
Cosmos 1844 Rocket 3.5 23:11:05 10° NNW 23:16:26 45° NE 23:16:26 45° NE
Cosmos 1125 Rocket 4.5 23:11:31 10° NNW 23:15:53 42° NE 23:15:53 42° NE
CZ-4C R/B 3.8 23:15:27 10° NW 23:21:07 37° W 23:21:07 37° W
Cosmos 841 Rocket 4.5 23:23:47 41° NW 23:23:47 41° NW 23:27:56 10° NNE
Cosmos 1697 Rocket 4.1 23:25:31 28° WNW 23:26:42 31° NW 23:31:43 10° NNE
USA 238 DEB 4.3 23:27:46 10° NW 23:34:51 58° NE 23:38:30 31° ESE
USA 238 4.3 23:27:52 10° NW 23:34:57 57° NE 23:38:43 31° ESE
Cosmos 2369 4.2 23:36:22 54° NNW 23:36:22 54° NNW 23:41:24 10° NNE
